Regional Weather Roundup
Issued by NWS San Diego, CA

Current Version | Previous Version | Text Only | Print | Product List | Glossary On
Versions: 1 2 3 4 5 6 7 8 9 10 11 12 13 14 15 16 17 18 19 20 21 22 23 24 25 26 27 28 29 30 31 32 33 34 35 36 37 38 39 40 41 42 43 44 45 46 47 48 49 50
000
ASUS46 KSGX 011311
RWRSGX

SAN DIEGO HOURLY WEATHER ROUNDUP
NATIONAL WEATHER SERVICE SAN DIEGO CA
600 AM PDT TUE SEP 01 2015

NOTE: "FAIR" INDICATES FEW OR NO CLOUDS BELOW 12,000 FEET WITH NO
SIGNIFICANT WEATHER AND/OR OBSTRUCTIONS TO VISIBILITY.

CAZ042-043-060-061-PZZ750-775-011400-

GREATER SAN DIEGO AREA

CITY           SKY/WX    TMP DP  RH WIND       PRES   REMARKS
LINDBERGH FLD  CLOUDY    71  59  65 S3        29.92S
POINT LOMA       N/A     68  60  75 W2          N/A
NATIONAL CITY    N/A     70  62  76 CALM      29.92R
CHULA VISTA      N/A     69  62  81 CALM      29.84S
IMPERIAL BEACH CLOUDY   N/A N/A N/A S6        29.92R
BROWN FIELD    CLOUDY    67  59  75 S5        29.92S
MIRAMAR MCAS   CLOUDY    71  58  63 SE5       29.91F
MONTGOMERY FLD CLOUDY    69  59  70 S6        29.92S

$$

NORTH SAN DIEGO COUNTY

CITY           SKY/WX    TMP DP  RH WIND       PRES   REMARKS
CAMP PENDLETON CLOUDY    69  58  67 S6        29.91S
OCEANSIDE AP   CLOUDY    70  59  68 CALM      29.90S
OCEANSIDE HBR    N/A     69  62  77 E3        29.93S
VISTA            N/A     68  61  79 CALM      29.88F
CARLSBAD       CLOUDY    69  60  73 S7        29.90F
DEL MAR          N/A     68  62  80 CALM      29.93F
LA JOLLA SCRIP   N/A     69  32  25 S3        29.89S
FALLBROOK        N/A     67  65  91 CALM      29.90S
ESCONDIDO        N/A     67  61  81 SE2       29.93S
SAN MARCOS       N/A     67  61  81 CALM      29.88F
POWAY            N/A     67  60  79 CALM      29.91S

$$

EAST SAN DIEGO COUNTY

CITY           SKY/WX    TMP DP  RH WIND       PRES   REMARKS
RAMONA         CLOUDY    63  58  83 CALM      29.93F
SANTEE LAKES     N/A     68  61  79 CALM      29.90S
LA MESA          N/A     66  60  80 CALM      29.84S
JAMUL            N/A     65  60  85 CALM      29.90S
DESCANSO N       N/A     58  28  31 E6        29.75S
CAMPO            N/A     50  38  63 NE6       29.94R

$$

ORANGE COUNTY AND THE LOS ANGELES BASIN

CITY           SKY/WX    TMP DP  RH WIND       PRES   REMARKS
JOHN WAYNE AP  MOCLDY    70  59  68 S8        29.90S
LAKE FOREST FR   N/A     66  57  73 CALM      29.80R
SANTA ANA        N/A     72  62  70 CALM      29.85S
HUNTINGTON BCH   N/A     70  62  76 CALM      29.92S
LOS ALAMITOS   CLOUDY    71  62  74 S6        29.90S
FULLERTON      CLOUDY    72  60  66 E5        29.90R
LONG BEACH     CLOUDY    72  61  68 S7        29.90R
L.A. AP        CLOUDY    70  60  70 E6        29.90S
L.A. DOWNTOWN  CLOUDY    71  59  65 CALM      29.89S

$$

THE INLAND EMPIRE

CITY           SKY/WX    TMP DP  RH WIND       PRES   REMARKS
CORONA         CLOUDY    67  61  81 CALM      29.93R
CHINO          CLOUDY    68  61  78 S5        29.93R
ONTARIO        CLOUDY    67  60  78 SW6       29.92R
RIVERSIDE AP   CLOUDY    67  60  78 CALM      29.93R
MORENO VALLEY    N/A     63  62  97 CALM      29.89R
MARCH ARB      CLOUDY    64  63  98 CALM      29.93S
HORSETHIEF CYN   N/A     63  56  79 CALM      29.93R
PERRIS           N/A     62  61  96 CALM      29.95S
MENIFEE          N/A     64  62  92 W1        29.98S
HEMET EAST       N/A     59  55  87 CALM      29.90F
FRENCH VALLEY  CLOUDY    64  59  82 CALM      29.94S
TEMECULA         N/A     66  62  86 CALM      29.90S

$$

SAN BERNARDINO AND RIVERSIDE COUNTY MOUNTAINS

CITY           SKY/WX    TMP DP  RH WIND       PRES   REMARKS
BIG BEAR AP    CLEAR     39  23  52 CALM      30.17S
ANGELUS OAKS     N/A     57  23  26 CALM      29.76R
PINE COVE        N/A     60  20  21 CALM      29.81F

$$

SOUTHERN DESERT INCLUDING THE COACHELLA VALLEY

CITY           SKY/WX    TMP DP  RH WIND       PRES   REMARKS
PALM SPRINGS   CLEAR     75  49  39 CALM      29.82R
THOUSAND PALMS   N/A     80  47  30 NW3       29.78R
PALM DESERT      N/A     73  54  51 CALM        N/A
THERMAL        CLEAR     69  49  48 W5        29.76R
BLYTHE         CLEAR     84  67  56 SE5       29.80S
IMPERIAL AP    CLEAR     87  73  62 E6        29.76R
EL CENTRO NAS  CLEAR     78  47  33 CALM      29.79R
YUMA AZ        PTCLDY    87  69  54 S7        29.80R

$$

UPPER DESERT

CITY           SKY/WX    TMP DP  RH WIND       PRES   REMARKS
VICTORVILLE AP CLEAR     63  43  48 S9        29.94S
HESPERIA         N/A     67  39  35 W3        29.91R
APPLE VALLEY     N/A     64  37  36 CALM      30.01R
PALMDALE       CLEAR     63  50  62 S7        29.93R
LANCASTER      CLEAR     65  42  43 W12       29.92R
EDWARDS AFB    PTCLDY    60  48  66 W5        29.90R
DAGGETT        CLEAR     69  43  38 W9        29.89R
29 PALMS N     CLEAR     70  40  33 W8        29.96R
NEEDLES        CLEAR     87  50  27 SE6       29.84R

$$

REGIONAL REPORTS

CITY           SKY/WX    TMP DP  RH WIND       PRES   REMARKS
SANTA BARBARA  CLOUDY    67  61  81 CALM      29.90R
SANDBERG       CLEAR     61  47  59 S9        30.04S
LAS VEGAS NV   CLEAR     83  39  21 S7        29.84R
PHOENIX AZ     PTCLDY    79  66  65 E3        29.89F
TIJUANA        CLOUDY    68  57  68 N6        29.94S
ENSENADA NW      N/A     69  32  25 CALM      29.89S

$$

OFFSHORE ISLANDS

CITY           SKY/WX    TMP DP  RH WIND       PRES   REMARKS
CATALINA ARPT  CLOUDY    63  57  81 CALM      29.94S
SAN NICOLAS IS CLOUDY    62  52  69 W9        29.91S

$$

MARINE AND OFFSHORE BUOY REPORTS

STATION/POSITION SKY/WX   TEMP    WIND        PRES    SWELL
                          AIR SEA DIR/SP/G            HT/PER/DIR
                          (F)     (DEG/KT/KT) (MB)    (FT/S/D)
TANNER BANKS               66 69  330/ 12/ 16 1013.2R   7/310/15
S CLEMENTE BASIN           66 72  300/  6/ 10 1012.7S   5/280/15
SO. S. ROSA ISLA           63 65  320/ 12/ 16 1011.8R   7/11
W. S. BARBARA CH           63 67  330/ 16/ 17 1011.8R   7/300/11
M. S. BARBARA CH           66 68  230/  4/  8 1013.0R
S. MONICA BASIN            67 71  200/  8/ 10 1012.4R   3/180/15
S PEDRO CHANNEL               72                N/A     2/260/15
DANA POINT                    74                N/A     3/210/15
OCEANSIDE OFFSHR              74                N/A     2/210/15
TORREY PINES OTR              74                N/A     2/220/15
LA JOLLA 1                 70 74  210/  5/  7 1012.5F
MISSION BAY BUOY              75                N/A     3/240/15
SAN DIEGO BAY                 78              1013.3F
POINT LOMA SOUTH              73                N/A     3/230/14

$$



USA.gov is the U.S. government's official web portal to all federal, state and local government web resources and services.